Naha City, Japan

5:53 AM JST on 六月 28, 2017 (GMT +0900)
Naha

天気 に付いての歴史 ROAH - 六月, 2017

Change the Weather History Date:

月曜日, 六月 19, 2017

  Actual Average Record
Temperature  
平均温度 78 °F -  
最高温度 80 °F 85 °F 91 °F (2004)
最低温度 75 °F 77 °F 75 °F (1999)
Cooling Degree Days 12    
Growing Degree Days 28 (Base 50)    
Moisture  
露点温度 73 °F    
Average Humidity 90    
Maximum Humidity 94    
Minimum Humidity 83    
降水確率  
降水確率 0.00 インチ - - ()
海面圧  
海面圧 29.79 インチ    
 
風速 7 Mph ()    
最大風速 17 Mph    
Max Gust Speed -    
視程 3.8 マイル    
イベント    
Averages and records for this station are not official NWS values.
T = Trace of Precipitation, MM = Missing Value Source: Averaged Metar Reports

Daily Weather History Graph

Daily Weather History Graph

Search for Another Location

Airport or City:

Trip Planner

Search our weather history database for the weather conditions in past years. The results will help you decide how hot, cold, wet, or windy it might be!

Date:

天文

Jun. 19, 2017 入り
実時間 5:37 AM JST 7:24 PM JST
常用薄明 5:11 AM JST 7:50 PM JST
航海薄明 4:39 AM JST 8:21 PM JST
天文薄明 4:06 AM JST 8:54 PM JST
1:30 AM JST (6/19) 2:06 PM JST (6/19)
可視光の長さ 14h 39m
可照時間
13h 46m
二十六夜, 32% of the Moon is Illuminated
6月 19
二十六夜
6月 24
新しい
7月 1
上弦
7月 9
満月
7月 17
第 4 四半期

Hourly Weather History & Observations

時間 (JST) 温度 体感気温(暑さ) 露点温度 湿度 気圧 視程 Wind Dir 風速 突風の速度 Precip イベント 現在の気象状況
12:00 AM 75.2 °F - 69.8 °F 83% 29.86 インチ 6.2 マイル 東南東 4.6 Mph - N/A 小雨
12:30 AM 75.2 °F - 69.8 °F 83% 29.83 インチ 6.2 マイル 南東 6.9 Mph - N/A 小雨
1:00 AM 75.2 °F - 69.8 °F 83% 29.83 インチ 6.2 マイル 南東 6.9 Mph - N/A 小雨
1:30 AM 75.2 °F - 69.8 °F 83% 29.83 インチ 6.2 マイル 東南東 6.9 Mph - N/A 小雨
2:00 AM 75.2 °F - 71.6 °F 89% 29.83 インチ 6.2 マイル 3.5 Mph - N/A 小雨
2:30 AM 75.2 °F - 71.6 °F 89% 29.83 インチ 6.2 マイル 変数 2.3 Mph - N/A 小雨
3:00 AM 75.2 °F - 71.6 °F 89% 29.80 インチ 6.2 マイル 東南東 5.8 Mph - N/A 小雨
3:30 AM 75.2 °F - 71.6 °F 89% 29.80 インチ 6.2 マイル 東南東 8.1 Mph - N/A 小雨
4:00 AM 75.2 °F - 69.8 °F 83% 29.80 インチ 6.2 マイル 南東 9.2 Mph - N/A 小雨
4:30 AM 75.2 °F - 71.6 °F 89% 29.80 インチ 6.2 マイル 南東 8.1 Mph - N/A 小雨
5:00 AM 75.2 °F - 71.6 °F 89% 29.80 インチ 6.2 マイル 南東 8.1 Mph - N/A 小雨
5:30 AM 75.2 °F - 71.6 °F 89% 29.80 インチ 6.2 マイル 南東 9.2 Mph - N/A  
6:00 AM 75.2 °F - 71.6 °F 89% 29.80 インチ 6.2 マイル 南東 8.1 Mph - N/A にわか雨(弱)
6:30 AM 77.0 °F - 71.6 °F 83% 29.80 インチ 6.2 マイル 南東 8.1 Mph - N/A にわか雨(弱)
7:00 AM 77.0 °F - 73.4 °F 89% 29.80 インチ 6.2 マイル 南東 9.2 Mph - N/A   だいたい曇
7:30 AM 77.0 °F - 73.4 °F 89% 29.80 インチ 6.2 マイル 南東 10.4 Mph - N/A   だいたい曇
8:00 AM 77.0 °F - 71.6 °F 83% 29.80 インチ 6.2 マイル 南東 9.2 Mph - N/A   だいたい曇
8:30 AM 77.0 °F - 73.4 °F 89% 29.80 インチ 6.2 マイル 東南東 12.7 Mph - N/A   だいたい曇
9:00 AM 77.0 °F - 71.6 °F 83% 29.80 インチ 6.2 マイル 南東 10.4 Mph - N/A   だいたい曇
9:30 AM 77.0 °F - 71.6 °F 83% 29.83 インチ 6.2 マイル 南東 10.4 Mph - N/A 小雨
10:00 AM 77.0 °F - 71.6 °F 83% 29.83 インチ 6.2 マイル 南東 9.2 Mph - N/A  
10:30 AM 77.0 °F - 73.4 °F 89% 29.80 インチ 6.2 マイル 東南東 10.4 Mph - N/A 小雨
11:00 AM 77.0 °F - 73.4 °F 89% 29.80 インチ 6.2 マイル 東南東 11.5 Mph - N/A
11:30 AM 77.0 °F - 73.4 °F 89% 29.80 インチ 4.3 マイル 変数 8.1 Mph - N/A
12:00 PM 77.0 °F - 73.4 °F 89% 29.80 インチ 3.7 マイル 東南東 10.4 Mph - N/A
12:14 PM 77.0 °F - 73.4 °F 89% 29.80 インチ 1.9 マイル 東南東 9.2 Mph - N/A 大雨
12:25 PM 77.0 °F - 73.4 °F 89% 29.80 インチ 1.2 マイル 東南東 10.4 Mph - N/A 大雨
12:30 PM 77.0 °F - 73.4 °F 89% 29.77 インチ 1.2 マイル 東南東 10.4 Mph - N/A 大雨
12:46 PM 75.2 °F - 73.4 °F 94% 29.80 インチ 1.2 マイル 東南東 6.9 Mph - N/A 大雨
12:49 PM 75.2 °F - 73.4 °F 94% 29.80 インチ 1.2 マイル 5.8 Mph - N/A 大雨
1:00 PM 75.2 °F - 73.4 °F 94% 29.80 インチ 0.7 マイル 東南東 3.5 Mph - N/A 大雨
1:04 PM 75.2 °F - 73.4 °F 94% 29.80 インチ 0.7 マイル 南東 3.5 Mph - N/A 大雨
1:17 PM 75.2 °F - 73.4 °F 94% 29.77 インチ 0.7 マイル 東南東 5.8 Mph - N/A 大雨
1:24 PM 75.2 °F - 73.4 °F 94% 29.80 インチ 2.5 マイル 変数 3.5 Mph - N/A 大雨
1:30 PM 75.2 °F - 73.4 °F 94% 29.77 インチ 2.5 マイル 変数 3.5 Mph - N/A 大雨
1:38 PM 75.2 °F - 73.4 °F 94% 29.80 インチ 1.2 マイル 5.8 Mph - N/A 大雨
2:00 PM 75.2 °F - 73.4 °F 94% 29.77 インチ 1.2 マイル 北北東 4.6 Mph - N/A 大雨
2:10 PM 75.2 °F - 73.4 °F 94% 29.77 インチ 3.1 マイル 3.5 Mph - N/A 大雨
2:15 PM 75.2 °F - 73.4 °F 94% 29.77 インチ 1.9 マイル 南東 5.8 Mph - N/A 大雨
2:30 PM 75.2 °F - 73.4 °F 94% 29.77 インチ 2.5 マイル 東北東 3.5 Mph - N/A
2:41 PM 75.2 °F - 73.4 °F 94% 29.77 インチ 3.7 マイル 東南東 6.9 Mph - N/A 小雨
3:00 PM 75.2 °F - 73.4 °F 94% 29.77 インチ 5.0 マイル 東南東 4.6 Mph - N/A
3:30 PM 75.2 °F - 73.4 °F 94% 29.77 インチ 6.2 マイル 東南東 5.8 Mph - N/A
4:00 PM 75.2 °F - 73.4 °F 94% 29.77 インチ 5.0 マイル 4.6 Mph - N/A
4:30 PM 75.2 °F - 73.4 °F 94% 29.77 インチ 5.0 マイル 東北東 4.6 Mph - N/A
4:40 PM 75.2 °F - 73.4 °F 94% 29.77 インチ 3.1 マイル 東南東 5.8 Mph - N/A 大雨
4:43 PM 75.2 °F - 73.4 °F 94% 29.77 インチ 2.5 マイル 南東 4.6 Mph - N/A 大雨
5:00 PM 75.2 °F - 71.6 °F 89% 29.77 インチ 2.5 マイル 東南東 6.9 Mph - N/A 大雨
5:30 PM 75.2 °F - 73.4 °F 94% 29.77 インチ 0.6 マイル 東南東 5.8 Mph - N/A にわか雨(強度)
5:47 PM 75.2 °F - 71.6 °F 89% 29.77 インチ 1.9 マイル 5.8 Mph - N/A にわか雨(強度)
6:00 PM 75.2 °F - 73.4 °F 94% 29.77 インチ 1.9 マイル 東南東 5.8 Mph - N/A にわか雨(強度)
6:30 PM 75.2 °F - 73.4 °F 94% 29.74 インチ 3.1 マイル 東南東 8.1 Mph - N/A
6:39 PM 75.2 °F - 73.4 °F 94% 29.74 インチ 1.2 マイル 南東 11.5 Mph - N/A にわか雨(強度)
7:00 PM 77.0 °F - 73.4 °F 89% 29.74 インチ 3.1 マイル 南東 12.7 Mph - N/A にわか雨
7:30 PM 78.8 °F - 75.2 °F 89% 29.74 インチ 2.5 マイル 13.8 Mph - N/A にわか雨
7:48 PM 78.8 °F - 77.0 °F 94% 29.74 インチ 2.5 マイル 南南東 12.7 Mph - N/A にわか雨(強度)
8:00 PM 78.8 °F - 75.2 °F 89% 29.74 インチ 2.5 マイル 12.7 Mph - N/A にわか雨(強度)
8:30 PM 80.6 °F 87.1 °F 77.0 °F 89% 29.77 インチ 2.5 マイル 南南西 12.7 Mph - N/A にわか雨(強度)
8:44 PM 78.8 °F - 75.2 °F 89% 29.77 インチ 1.9 マイル 11.5 Mph - N/A にわか雨(強度)
9:00 PM 78.8 °F - 75.2 °F 89% 29.77 インチ 2.5 マイル 南南西 15.0 Mph - N/A にわか雨(強度)
9:13 PM 75.2 °F - 73.4 °F 94% 29.80 インチ 1.2 マイル 変数 9.2 Mph - N/A にわか雨(強度)
9:16 PM 75.2 °F - 73.4 °F 94% 29.80 インチ 1.9 マイル 変数 6.9 Mph - N/A にわか雨(強度)
9:30 PM 75.2 °F - 73.4 °F 94% 29.80 インチ 2.5 マイル 西 9.2 Mph - N/A にわか雨(強度)
9:38 PM 75.2 °F - 71.6 °F 89% 29.80 インチ 1.2 マイル 西北西 8.1 Mph - N/A にわか雨(強度)
10:00 PM 75.2 °F - 73.4 °F 94% 29.80 インチ 2.5 マイル 北西 13.8 Mph - N/A にわか雨(強度)
10:11 PM 75.2 °F - 73.4 °F 94% 29.83 インチ 1.9 マイル 西南西 16.1 Mph - N/A にわか雨(強度)
10:19 PM 75.2 °F - 73.4 °F 94% 29.83 インチ 3.1 マイル 西 17.3 Mph - N/A にわか雨
10:30 PM 75.2 °F - 73.4 °F 94% 29.83 インチ 3.7 マイル 西 16.1 Mph - N/A
11:00 PM 75.2 °F - 73.4 °F 94% 29.80 インチ 6.2 マイル 西 11.5 Mph - N/A 小雨
11:30 PM 77.0 °F - 73.4 °F 89% 29.80 インチ 6.2 マイル 西 12.7 Mph - N/A 小雨
11:35 PM 75.2 °F - 71.6 °F 89% 29.80 インチ 6.2 マイル 西 11.5 Mph - N/A